|
NORAD ID: 38708 Int'l Code: 2012-039B
Perigee: 512.3 km
Apogee: 514.7 km
Inclination: 97.5 °
Period: 94.7 minutes
Semi major axis: 6884 km
Launch date: July 22, 2012
Source: (BELA)
Comments: The BKA satellite is a Belarusian satellite analogue of the Canopus-B, a satellite designed for remote sensing of the Earth. It weighs about 400 kilograms and it is to work on a circular orbit at a height of 510 km.
Two Line Element Set (TLE):
1 38708U 12039B 13169.33750177 .00001419 00000-0 69441-4 0 426
2 38708 097.4817 080.9759 0001787 087.4689 060.5515 15.19830412 50288
Source: AFSPC
NASA's NSSDC Master Catalog entry for BKA 2
|